Volver al catálogo

DELTA 1 DEB

ActivoSSO
NORAD 42084·DEBRIS·🇺🇸 United States

Lanzado Dec 15, 1968 desde Vandenberg Space Force Base

Loading…

Próximos Pases (próximas 24 horas)

TLE

ActualizadoSource: Space-Track

Época: Sep 11, 2026, 08:49 UTC

1 42084U 68114L   26254.36793290  .00000012  00000-0  28199-3 0  9991
2 42084 101.7092 302.5711 0337952  24.5853 337.0923 12.54103513310573

Sigue DELTA 1 DEB en tiempo real con AllMySat

Download on the App Store